Wind_Speed
6 6 5 6 6 6 6 6 6 6 6 6 6 6 6 5 5 5 6 6 7 7 7 7 7 7 7 7 7 7 7 7 7 7 8 8 9 9 10 10 9 9 9
4 4 4 4 4 4 5 5 5 5 5 5 6 6 6 6 5 5 6 8 8 9 9 9 9 8 8 7 8 8 8 8 9 9 9 9 10 11 11 11 10 10 10
3 3 3 3 3 3 4 4 4 4 5 5 5 6 6 6 6 6 7 8 9 10 9 10 10 9 8 8 9 9 9 9 9 9 9 9 10 11 11 11 11 10 11
3 2 3 2 2 3 3 4 5 5 5 5 5 5 6 6 7 7 8 9 9 10 10 11 11 10 10 10 10 9 10 10 10 10 10 10 10 11 11 12 11 11 11
4 3 5 4 2 2 3 5 6 6 6 6 6 5 6 6 8 9 9 10 10 11 12 12 12 11 11 11 11 10 11 12 12 12 11 11 10 11 11 11 11 11 11
5 5 5 5 4 4 4 6 7 8 8 7 6 6 6 7 8 9 9 10 11 11 12 12 12 12 11 12 12 12 12 12 12 12 12 11 11 11 12 11 11 12 12
6 6 7 7 8 7 6 7 8 9 8 7 7 7 7 8 8 9 10 10 11 12 12 12 12 12 12 13 13 13 13 13 13 13 12 11 12 12 11 11 11 12 13
8 8 8 8 9 9 8 8 8 8 9 9 8 9 9 9 9 10 10 10 11 12 12 12 12 13 13 13 13 13 13 13 14 14 14 13 12 11 12 12 13 13 14
9 8 9 9 8 8 9 8 8 9 10 10 10 10 10 10 10 11 11 11 12 12 13 14 14 14 14 13 13 13 13 14 14 14 14 13 13 13 14 14 14 15 16
12 11 10 10 9 9 10 9 10 11 12 11 12 11 11 11 11 12 12 13 13 13 14 14 15 14 14 14 14 15 15 15 15 15 14 15 15 16 16 16 15 15 16
12 12 11 10 10 10 11 10 11 12 12 12 11 12 12 12 13 13 14 14 14 14 14 15 15 15 15 15 15 16 16 16 17 17 17 17 18 18 18 18 17 17 17
12 13 12 12 12 13 12 12 12 13 14 14 13 13 13 14 14 15 16 15 15 15 15 16 16 16 16 17 17 17 18 18 18 19 19 19 20 20 20 20 19 19 19
12 12 12 12 12 13 13 14 14 14 14 15 15 15 15 16 17 17 17 17 17 17 17 17 17 18 18 18 19 19 20 19 20 20 20 21 22 21 21 21 21 21 21
13 14 14 13 13 14 15 15 15 15 15 15 16 17 17 18 18 18 18 17 18 19 19 19 19 19 20 20 21 21 21 20 20 21 22 22 23 22 23 22 22 23 22
15 15 14 14 14 15 16 17 16 16 17 17 18 18 18 19 19 19 18 19 20 21 21 21 21 22 22 22 22 22 21 21 22 23 23 23 23 23 23 23 23 23 23
18 17 16 16 16 17 18 18 18 18 19 19 19 19 20 20 21 21 20 21 21 22 22 23 23 23 23 23 23 23 23 23 24 24 24 24 24 23 23 23 23 23 24
20 19 19 19 19 18 18 19 18 18 19 20 21 21 21 22 22 22 23 23 23 23 24 24 25 24 24 24 24 25 25 25 25 25 25 25 24 24 25 24 23 23 23
21 22 22 22 22 22 21 21 21 21 22 22 22 22 23 23 23 24 25 24 24 24 25 25 25 26 26 26 27 27 27 27 26 26 26 26 26 26 26 25 24 24 24
22 23 23 23 24 24 23 24 24 24 24 24 23 23 25 25 25 26 26 25 25 25 26 27 27 28 28 29 29 29 29 28 28 28 27 27 27 27 26 25 25 25 25
24 25 25 24 24 24 24 25 25 24 24 24 24 25 26 26 26 26 26 27 27 27 28 28 29 29 30 30 30 30 29 29 29 29 29 29 28 27 26 26 26 25 25
26 25 26 25 25 25 25 26 26 25 25 25 26 26 27 27 27 27 28 28 28 28 29 29 29 29 29 30 30 30 29 30 30 30 30 29 28 27 26 26 25 24 24
28 26 26 27 27 27 26 27 28 28 27 27 28 28 29 29 29 30 29 29 29 29 29 29 29 29 29 29 30 31 30 30 30 30 30 29 28 27 26 26 25 24 24
28 27 28 28 28 28 28 28 29 29 29 29 30 30 30 31 31 31 31 30 30 30 30 29 29 29 29 29 30 30 30 30 31 30 29 28 27 26 26 25 25 25 25
27 28 29 29 28 29 29 29 29 29 30 30 31 31 31 31 31 31 31 31 30 30 30 30 29 30 30 29 29 30 31 30 30 29 28 27 26 25 25 25 25 25 25
28 28 29 29 29 29 30 30 30 31 31 31 32 32 31 31 31 31 31 30 30 30 30 30 30 30 30 30 30 30 30 29 29 28 27 26 25 25 25 25 25 25 26
30 30 30 30 31 31 31 31 31 31 32 32 32 32 31 31 30 30 30 30 30 30 30 30 30 30 30 30 30 30 30 29 29 28 27 26 25 26 26 26 26 27 27
Wind_Direction
33 31 37 44 49 50 41 42 41 39 35 31 26 19 19 12 8 7 7 2 356 352 347 342 341 335 330 327 322 315 310 305 298 294 291 286 287 283 278 276 276 276 276
33 22 21 40 47 46 38 35 28 24 18 16 13 9 5 0 357 1 358 355 350 347 348 344 338 331 329 329 328 322 315 306 298 294 291 286 287 287 282 277 278 276 274
4 6 8 15 21 38 30 23 11 6 3 360 358 355 354 353 350 346 346 345 344 342 342 339 336 328 328 326 321 316 311 311 306 300 294 286 285 285 283 280 275 274 274
336 339 335 330 346 8 4 359 350 345 342 338 337 337 338 339 339 338 336 337 338 337 336 334 332 331 327 321 315 310 307 306 305 301 296 286 288 286 282 279 275 276 276
308 324 324 310 308 330 341 339 334 329 327 323 320 321 322 326 330 331 328 329 331 332 331 329 330 326 324 318 310 306 306 303 302 301 299 290 287 289 287 282 281 281 280
289 286 301 314 313 306 317 321 319 321 319 312 310 311 316 320 324 326 323 321 323 328 327 324 326 325 320 319 316 312 311 308 307 302 297 291 285 290 287 285 283 283 281
286 279 286 300 305 299 297 304 310 316 316 304 300 304 312 318 320 318 319 321 325 325 322 321 319 317 311 311 311 310 309 308 308 305 298 294 286 287 284 283 283 283 282
288 285 282 296 299 294 294 296 300 307 307 299 292 297 303 309 311 314 316 317 320 320 319 316 314 310 307 306 307 309 306 305 306 302 297 296 291 287 284 284 284 283 282
286 289 285 293 295 295 289 286 294 300 301 299 289 292 297 303 308 313 312 313 313 313 313 313 312 310 308 308 309 308 306 305 302 300 297 295 294 292 291 287 286 286 285
294 293 297 293 291 294 293 293 297 299 297 294 288 286 294 300 306 309 311 312 311 311 311 312 311 309 307 306 306 304 304 304 303 300 297 295 292 291 293 291 288 286 287
291 292 295 296 299 299 294 294 294 297 300 301 299 294 297 297 301 306 308 307 308 309 310 311 311 309 306 304 302 301 301 299 297 297 296 293 291 291 290 292 290 289 287
283 288 294 301 302 301 299 298 298 298 298 296 297 302 302 300 300 301 302 304 305 307 308 308 308 308 306 302 300 299 297 296 295 294 293 291 291 290 289 289 288 288 287
278 286 293 296 297 298 296 298 296 296 295 293 295 299 301 301 301 301 301 302 300 302 305 305 305 305 304 302 299 298 296 294 294 293 292 290 290 289 288 287 287 285 286
280 287 291 289 292 293 294 294 295 294 294 295 296 297 297 299 299 300 300 300 300 300 300 302 302 301 301 300 298 297 296 296 295 293 292 291 290 289 287 285 285 285 284
278 284 284 282 285 287 290 290 292 292 292 294 294 294 295 295 296 297 298 298 298 298 298 300 300 299 298 297 297 296 295 295 295 294 292 291 289 289 287 285 284 284 284
279 283 285 285 284 286 287 287 289 292 292 294 296 295 295 296 295 295 295 296 296 296 296 297 297 296 297 296 295 294 294 295 296 295 293 292 291 289 287 285 285 284 283
277 284 284 284 282 286 288 288 287 291 293 294 294 295 294 295 296 295 293 292 291 291 292 294 296 295 295 295 295 295 294 293 294 294 294 292 291 290 288 286 286 284 284
276 279 280 279 277 279 281 285 287 291 292 292 292 290 292 295 296 295 294 292 290 290 292 293 293 294 294 294 295 295 295 294 292 292 292 292 292 291 289 287 283 283 282
275 277 278 278 277 277 280 282 283 285 288 291 293 293 295 297 296 296 294 295 293 291 290 291 293 293 292 292 292 294 294 292 290 290 291 293 293 292 291 287 286 284 282
274 275 274 278 280 277 281 286 285 286 289 293 294 295 296 296 296 296 296 295 293 291 290 291 293 292 292 292 292 293 293 292 290 289 290 290 291 290 288 287 285 284 281
274 276 277 280 281 282 283 287 288 288 289 291 294 296 297 296 296 295 295 295 293 292 292 292 292 291 291 292 293 292 292 293 291 290 288 288 289 286 285 286 285 283 281
274 277 280 281 281 282 285 287 287 287 288 289 290 292 294 295 295 295 295 294 293 293 293 293 292 291 291 290 292 290 290 292 290 288 288 288 287 285 284 284 283 282 281
275 277 279 280 281 282 284 285 285 286 288 289 289 290 292 293 294 294 294 294 293 292 292 292 292 292 291 291 292 290 291 290 289 287 286 285 284 284 283 282 281 281 282
275 277 279 280 282 284 285 284 285 286 288 289 290 290 292 293 293 293 292 291 291 291 292 292 292 292 292 292 291 290 290 289 289 288 287 285 284 283 282 282 282 282 282
276 277 278 279 282 284 285 285 284 285 286 287 288 290 292 293 293 292 291 290 290 291 292 293 292 292 291 291 290 290 290 290 289 287 286 285 283 282 284 284 284 283 283
276 275 276 278 280 282 283 283 283 284 285 286 287 288 290 291 292 291 290 290 291 292 293 294 294 293 292 291 290 290 290 290 289 286 284 284 283 282 282 283 283 282 282
Height
5911 5910 5909 5908 5907 5906 5906 5905 5905 5904 5903 5903 5902 5901 5901 5900 5899 5898 5897 5896 5895 5894 5892 5891 5891 5890 5889 5888 5887 5886 5885 5884 5883 5883 5882 5881 5880 5879 5878 5878 5877 5877 5876
5910 5910 5909 5908 5907 5906 5905 5905 5904 5904 5903 5903 5902 5901 5900 5899 5899 5898 5896 5895 5894 5892 5891 5890 5889 5888 5887 5886 5885 5884 5883 5882 5881 5880 5879 5878 5878 5876 5875 5875 5874 5874 5873
5909 5909 5909 5908 5906 5905 5905 5905 5905 5904 5903 5903 5902 5901 5900 5899 5898 5897 5896 5894 5893 5891 5890 5889 5887 5886 5885 5884 5883 5882 5881 5880 5878 5877 5877 5876 5875 5873 5872 5871 5871 5871 5870
5908 5908 5908 5907 5906 5905 5905 5905 5904 5904 5903 5902 5901 5900 5899 5898 5896 5895 5894 5893 5891 5890 5888 5887 5885 5884 5883 5881 5880 5879 5878 5877 5875 5874 5873 5872 5871 5870 5869 5868 5868 5867 5866
5907 5907 5907 5906 5905 5904 5904 5903 5903 5902 5901 5900 5899 5898 5897 5896 5895 5894 5892 5891 5890 5888 5886 5884 5883 5881 5880 5879 5877 5876 5875 5873 5872 5871 5869 5868 5867 5867 5865 5864 5863 5863 5863
5906 5906 5905 5904 5903 5902 5902 5902 5901 5900 5899 5898 5897 5896 5895 5894 5893 5892 5890 5889 5887 5886 5884 5882 5880 5879 5877 5876 5874 5872 5870 5869 5868 5867 5866 5864 5864 5863 5862 5861 5859 5859 5858
5903 5903 5903 5902 5901 5900 5899 5899 5899 5898 5896 5895 5894 5894 5893 5892 5891 5890 5888 5887 5885 5883 5881 5880 5878 5876 5875 5873 5871 5869 5867 5866 5864 5863 5862 5861 5860 5859 5858 5857 5856 5855 5854
5900 5900 5900 5899 5899 5897 5896 5897 5896 5895 5894 5893 5892 5891 5890 5890 5888 5887 5886 5884 5883 5881 5879 5877 5875 5874 5872 5870 5868 5866 5864 5862 5860 5859 5858 5857 5857 5855 5855 5854 5852 5851 5850
5897 5897 5897 5896 5895 5894 5893 5893 5892 5892 5891 5889 5889 5888 5887 5886 5885 5884 5882 5881 5880 5878 5876 5874 5872 5870 5868 5867 5865 5863 5861 5859 5858 5856 5855 5854 5853 5852 5851 5850 5849 5848 5846
5894 5893 5893 5892 5892 5891 5891 5890 5890 5889 5888 5887 5885 5885 5884 5883 5882 5881 5879 5878 5876 5875 5873 5870 5868 5866 5865 5863 5861 5860 5858 5856 5854 5853 5852 5851 5849 5848 5847 5845 5844 5843 5842
5891 5890 5890 5890 5889 5890 5889 5888 5887 5886 5885 5883 5882 5882 5880 5879 5879 5878 5876 5874 5872 5870 5868 5867 5865 5863 5861 5859 5857 5856 5854 5852 5851 5849 5848 5846 5845 5843 5842 5840 5839 5837 5836
5888 5888 5887 5887 5886 5886 5886 5885 5884 5883 5882 5881 5880 5878 5877 5875 5875 5873 5872 5870 5868 5866 5864 5863 5861 5859 5857 5855 5853 5851 5849 5848 5846 5845 5843 5842 5840 5838 5837 5835 5834 5832 5830
5885 5885 5884 5884 5884 5883 5882 5882 5880 5879 5878 5877 5875 5874 5873 5872 5870 5869 5867 5865 5864 5862 5860 5858 5856 5854 5852 5850 5848 5846 5844 5843 5841 5839 5838 5836 5834 5833 5831 5829 5828 5826 5825
5881 5881 5881 5881 5880 5879 5878 5877 5876 5875 5874 5872 5871 5870 5869 5867 5866 5864 5862 5861 5859 5857 5855 5853 5851 5849 5847 5845 5843 5841 5839 5837 5835 5834 5832 5830 5828 5827 5825 5823 5822 5820 5819
5876 5877 5876 5876 5875 5875 5874 5873 5872 5871 5870 5868 5867 5865 5864 5862 5860 5859 5857 5855 5854 5852 5850 5848 5846 5844 5842 5840 5838 5836 5834 5832 5830 5828 5825 5823 5822 5820 5818 5816 5815 5813 5812
5871 5872 5871 5871 5870 5870 5869 5868 5867 5865 5864 5863 5861 5860 5858 5856 5855 5853 5851 5850 5848 5846 5844 5842 5840 5838 5836 5834 5832 5830 5828 5826 5823 5821 5819 5817 5815 5813 5811 5809 5808 5807 5805
5866 5866 5866 5865 5864 5864 5863 5862 5861 5860 5859 5857 5855 5854 5852 5850 5848 5847 5845 5843 5841 5840 5838 5836 5834 5832 5830 5827 5825 5823 5821 5819 5817 5815 5812 5810 5808 5806 5804 5802 5801 5800 5798
5861 5860 5860 5859 5859 5858 5857 5856 5855 5854 5853 5851 5849 5848 5846 5844 5842 5840 5838 5835 5834 5833 5831 5829 5827 5825 5823 5820 5818 5816 5814 5812 5810 5808 5806 5803 5801 5799 5797 5795 5794 5792 5791
5855 5854 5854 5853 5852 5851 5850 5850 5849 5848 5846 5845 5844 5841 5839 5837 5835 5833 5831 5829 5827 5825 5823 5821 5819 5817 5815 5812 5810 5808 5806 5804 5802 5800 5798 5796 5793 5791 5789 5788 5786 5784 5783
5848 5848 5847 5847 5845 5845 5844 5843 5842 5840 5839 5838 5837 5835 5833 5830 5828 5826 5824 5821 5820 5818 5816 5814 5811 5809 5806 5804 5802 5799 5797 5795 5793 5791 5789 5787 5785 5783 5781 5780 5778 5777 5775
5841 5840 5840 5839 5839 5838 5838 5837 5835 5834 5832 5831 5830 5827 5825 5822 5820 5818 5816 5814 5812 5810 5807 5805 5803 5801 5798 5796 5793 5791 5788 5787 5784 5782 5780 5778 5776 5775 5773 5772 5770 5769 5767
5833 5833 5833 5832 5832 5831 5830 5829 5828 5826 5824 5823 5822 5819 5817 5814 5812 5810 5808 5806 5804 5801 5799 5797 5795 5792 5790 5787 5784 5782 5779 5777 5776 5774 5771 5770 5768 5766 5765 5763 5762 5761 5760
5826 5825 5825 5825 5824 5823 5822 5821 5820 5818 5817 5815 5813 5811 5809 5806 5804 5802 5800 5797 5795 5793 5791 5788 5786 5784 5781 5779 5776 5774 5771 5769 5767 5764 5762 5761 5759 5757 5756 5755 5754 5753 5751
5818 5817 5817 5816 5815 5815 5813 5812 5811 5809 5808 5806 5805 5802 5800 5798 5796 5793 5791 5788 5786 5784 5782 5779 5777 5775 5773 5770 5768 5765 5763 5760 5758 5756 5754 5752 5750 5749 5748 5747 5746 5744 5743
5809 5809 5808 5807 5806 5806 5804 5803 5801 5800 5799 5797 5795 5793 5791 5789 5787 5784 5782 5780 5777 5775 5773 5770 5768 5765 5763 5761 5759 5756 5753 5751 5749 5747 5745 5744 5742 5741 5740 5738 5737 5736 5734
5800 5800 5799 5799 5798 5797 5796 5794 5793 5791 5790 5788 5786 5784 5782 5780 5778 5775 5773 5770 5768 5766 5763 5761 5758 5756 5754 5751 5749 5746 5744 5742 5740 5738 5736 5735 5734 5732 5731 5730 5728 5727 5726